| time (UTC) | temp F | wind direction | speed MPH | gust MPH | rain 1hr in | rain 24hr in | rain mn in | humidity % | barometer mb |
| 20260831232004 | 62 | 42 | 3.0 | 6.0 | 0.00 | 0.01 | 0.00 | 84 | 1021.0 |
| 20260831231503 | 62 | 42 | 2.0 | 6.0 | 0.00 | 0.01 | 0.00 | 84 | 1021.0 |
| 20260831231004 | 62 | 41 | 1.0 | 3.0 | 0.00 | 0.01 | 0.00 | 84 | 1020.9 |
| 20260831230504 | 62 | 41 | 1.0 | 5.0 | 0.00 | 0.01 | 0.00 | 84 | 1021.0 |
| 20260831230004 | 62 | 41 | 0.0 | 3.0 | 0.00 | 0.01 | 0.00 | 84 | 1021.0 |
| 20260831225504 | 62 | 40 | 1.0 | 3.0 | 0.00 | 0.01 | 0.00 | 84 | 1021.1 |
| 20260831224004 | 62 | 57 | 0.0 | 2.0 | 0.00 | 0.01 | 0.00 | 82 | 1021.2 |
| 20260831223504 | 62 | 39 | 1.0 | 3.0 | 0.00 | 0.01 | 0.00 | 82 | 1021.2 |
| 20260831222504 | 62 | 38 | 1.0 | 5.0 | 0.00 | 0.01 | 0.00 | 81 | 1021.2 |
| 20260831222003 | 62 | 38 | 4.0 | 7.0 | 0.00 | 0.01 | 0.00 | 81 | 1021.1 |
| 20260831220503 | 62 | 5 | 3.0 | 6.0 | 0.00 | 0.01 | 0.00 | 79 | 1021.0 |
| 20260831220005 | 63 | 276 | 0.0 | 0.0 | 0.00 | 0.01 | 0.00 | 79 | 1020.9 |
| 20260831215503 | 63 | 276 | 0.0 | 0.0 | 0.00 | 0.01 | 0.01 | 79 | 1020.9 |
| 20260831215004 | 63 | 276 | 0.0 | 1.0 | 0.00 | 0.01 | 0.01 | 79 | 1021.0 |
| 20260831214504 | 64 | 276 | 0.0 | 0.0 | 0.00 | 0.01 | 0.01 | 79 | 1021.0 |
| 20260831214004 | 64 | 276 | 0.0 | 0.0 | 0.00 | 0.01 | 0.01 | 79 | 1021.0 |
| 20260831213504 | 64 | 276 | 0.0 | 0.0 | 0.00 | 0.01 | 0.01 | 79 | 1020.9 |
| 20260831213004 | 64 | 276 | 0.0 | 0.0 | 0.00 | 0.01 | 0.01 | 79 | 1020.9 |
| 20260831212504 | 65 | 276 | 0.0 | 0.0 | 0.00 | 0.01 | 0.01 | 78 | 1020.8 |
| 20260831212004 | 65 | 276 | 0.0 | 0.0 | 0.00 | 0.01 | 0.01 | 79 | 1020.8 |
| 20260831211504 | 65 | 276 | 0.0 | 0.0 | 0.00 | 0.01 | 0.01 | 78 | 1020.8 |
| 20260831211004 | 66 | 276 | 0.0 | 0.0 | 0.00 | 0.01 | 0.01 | 78 | 1020.9 |
| 20260831210504 | 66 | 276 | 0.0 | 0.0 | 0.00 | 0.01 | 0.01 | 77 | 1020.8 |
| 20260831205504 | 67 | 276 | 0.0 | 0.0 | 0.00 | 0.01 | 0.01 | 76 | 1020.7 |
| 20260831205004 | 67 | 276 | 0.0 | 0.0 | 0.00 | 0.01 | 0.01 | 76 | 1020.7 |
| 20260831204504 | 68 | 276 | 0.0 | 0.0 | 0.00 | 0.01 | 0.01 | 75 | 1020.7 |
| 20260831204004 | 68 | 276 | 0.0 | 0.0 | 0.00 | 0.01 | 0.01 | 74 | 1020.7 |
| 20260831203503 | 68 | 276 | 0.0 | 0.0 | 0.00 | 0.01 | 0.01 | 74 | 1020.6 |
| 20260831203005 | 68 | 276 | 0.0 | 0.0 | 0.00 | 0.01 | 0.01 | 74 | 1020.5 |
| 20260831202503 | 69 | 276 | 0.0 | 0.0 | 0.00 | 0.01 | 0.01 | 74 | 1020.4 |
| 20260831201503 | 69 | 276 | 0.0 | 2.0 | 0.00 | 0.01 | 0.01 | 74 | 1020.3 |
| 20260831201004 | 69 | 276 | 1.0 | 2.0 | 0.00 | 0.01 | 0.01 | 73 | 1020.2 |
| 20260831200503 | 70 | 276 | 0.0 | 2.0 | 0.00 | 0.01 | 0.01 | 73 | 1020.2 |
| 20260831200005 | 70 | 276 | 2.0 | 5.0 | 0.00 | 0.01 | 0.01 | 72 | 1020.2 |
| 20260831195503 | 70 | 275 | 0.0 | 5.0 | 0.00 | 0.01 | 0.01 | 72 | 1020.2 |
| 20260831195004 | 70 | 275 | 1.0 | 5.0 | 0.00 | 0.01 | 0.01 | 71 | 1020.2 |
| 20260831194504 | 70 | 203 | 0.0 | 0.0 | 0.00 | 0.01 | 0.01 | 68 | 1020.3 |
| 20260831194003 | 71 | 203 | 0.0 | 0.0 | 0.00 | 0.01 | 0.01 | 65 | 1020.3 |
| 20260831193005 | 71 | 203 | 0.0 | 0.0 | 0.00 | 0.01 | 0.01 | 65 | 1020.1 |
| 20260831192503 | 72 | 203 | 1.0 | 5.0 | 0.00 | 0.01 | 0.01 | 68 | 1020.0 |
| 20260831192004 | 72 | 193 | 0.0 | 3.0 | 0.00 | 0.01 | 0.01 | 67 | 1019.9 |
| 20260831191505 | 72 | 193 | 0.0 | 6.0 | 0.00 | 0.01 | 0.01 | 68 | 1019.8 |
| 20260831191004 | 72 | 223 | 1.0 | 7.0 | 0.00 | 0.01 | 0.01 | 67 | 1019.8 |
| 20260831190504 | 72 | 263 | 2.0 | 9.0 | 0.00 | 0.01 | 0.01 | 64 | 1019.7 |
| 20260831190005 | 73 | 356 | 5.0 | 9.0 | 0.00 | 0.01 | 0.01 | 64 | 1019.7 |
| 20260831185003 | 73 | 228 | 0.0 | 0.0 | 0.00 | 0.01 | 0.01 | 66 | 1019.6 |
| 20260831184004 | 74 | 228 | 0.0 | 3.0 | 0.00 | 0.01 | 0.01 | 67 | 1019.6 |
| 20260831183504 | 74 | 228 | 3.0 | 7.0 | 0.00 | 0.01 | 0.01 | 66 | 1019.5 |
| 20260831183004 | 74 | 227 | 1.0 | 5.0 | 0.00 | 0.01 | 0.01 | 65 | 1019.4 |
| 20260831182504 | 75 | 227 | 2.0 | 6.0 | 0.00 | 0.01 | 0.01 | 65 | 1019.4 |
| 20260831182004 | 75 | 227 | 3.0 | 8.0 | 0.00 | 0.01 | 0.01 | 64 | 1019.4 |
| 20260831181504 | 75 | 227 | 5.0 | 9.0 | 0.00 | 0.01 | 0.01 | 64 | 1019.4 |
| 20260831180504 | 75 | 229 | 3.0 | 6.0 | 0.00 | 0.01 | 0.01 | 62 | 1019.3 |
| 20260831180005 | 76 | 229 | 5.0 | 9.0 | 0.00 | 0.01 | 0.01 | 62 | 1019.3 |
| 20260831175003 | 76 | 245 | 5.0 | 9.0 | 0.00 | 0.01 | 0.01 | 60 | 1019.4 |
| 20260831174504 | 76 | 242 | 6.0 | 12.0 | 0.00 | 0.01 | 0.01 | 60 | 1019.3 |
| 20260831174004 | 76 | 245 | 6.0 | 9.0 | 0.00 | 0.01 | 0.01 | 60 | 1019.3 |
| 20260831173504 | 77 | 248 | 4.0 | 7.0 | 0.00 | 0.01 | 0.01 | 59 | 1019.3 |
| 20260831172504 | 77 | 235 | 5.0 | 8.0 | 0.00 | 0.01 | 0.01 | 58 | 1019.2 |
| 20260831172004 | 77 | 246 | 5.0 | 9.0 | 0.00 | 0.01 | 0.01 | 58 | 1019.2 |
| 20260831171504 | 77 | 238 | 3.0 | 7.0 | 0.00 | 0.01 | 0.01 | 58 | 1019.2 |
| 20260831171004 | 77 | 243 | 7.0 | 10.0 | 0.00 | 0.01 | 0.01 | 58 | 1019.3 |
| 20260831170005 | 77 | 247 | 5.0 | 9.0 | 0.00 | 0.01 | 0.01 | 58 | 1019.4 |
| 20260831165003 | 77 | 254 | 5.0 | 12.0 | 0.00 | 0.01 | 0.01 | 57 | 1019.4 |
| 20260831164004 | 78 | 240 | 6.0 | 12.0 | 0.00 | 0.01 | 0.01 | 56 | 1019.4 |
| 20260831163504 | 78 | 240 | 7.0 | 12.0 | 0.00 | 0.01 | 0.01 | 57 | 1019.3 |
| 20260831163005 | 78 | 242 | 7.0 | 14.0 | 0.00 | 0.01 | 0.01 | 57 | 1019.3 |
| 20260831162504 | 78 | 237 | 6.0 | 14.0 | 0.00 | 0.01 | 0.01 | 57 | 1019.2 |
| 20260831162004 | 78 | 255 | 6.0 | 10.0 | 0.00 | 0.01 | 0.01 | 57 | 1019.2 |
| 20260831161504 | 78 | 263 | 6.0 | 12.0 | 0.00 | 0.01 | 0.01 | 56 | 1019.4 |
| 20260831160503 | 79 | 252 | 7.0 | 10.0 | 0.00 | 0.01 | 0.01 | 55 | 1019.4 |
| 20260831160005 | 79 | 261 | 6.0 | 13.0 | 0.00 | 0.01 | 0.01 | 54 | 1019.5 |
| 20260831155503 | 79 | 235 | 5.0 | 13.0 | 0.00 | 0.01 | 0.01 | 54 | 1019.5 |
| 20260831155004 | 79 | 244 | 5.0 | 8.0 | 0.00 | 0.01 | 0.01 | 54 | 1019.5 |
| 20260831154003 | 79 | 238 | 5.0 | 10.0 | 0.00 | 0.01 | 0.01 | 51 | 1019.5 |
| 20260831153504 | 79 | 250 | 6.0 | 12.0 | 0.00 | 0.01 | 0.01 | 53 | 1019.6 |
| 20260831152504 | 79 | 271 | 5.0 | 9.0 | 0.00 | 0.01 | 0.01 | 54 | 1019.7 |
| 20260831152003 | 80 | 252 | 5.0 | 10.0 | 0.00 | 0.01 | 0.01 | 51 | 1019.7 |
| 20260831151504 | 79 | 249 | 3.0 | 8.0 | 0.00 | 0.01 | 0.01 | 53 | 1019.8 |
| 20260831151003 | 79 | 230 | 2.0 | 8.0 | 0.00 | 0.01 | 0.01 | 54 | 1019.8 |
| 20260831150504 | 79 | 242 | 4.0 | 10.0 | 0.00 | 0.01 | 0.01 | 52 | 1019.9 |
| 20260831145504 | 79 | 298 | 3.0 | 8.0 | 0.00 | 0.01 | 0.01 | 51 | 1019.9 |
| 20260831145003 | 79 | 271 | 2.0 | 6.0 | 0.00 | 0.01 | 0.01 | 51 | 1020.0 |
| 20260831144504 | 79 | 308 | 4.0 | 8.0 | 0.00 | 0.01 | 0.01 | 50 | 1020.1 |
| 20260831143504 | 79 | 313 | 2.0 | 8.0 | 0.00 | 0.01 | 0.01 | 48 | 1020.2 |
| 20260831143005 | 80 | 300 | 4.0 | 9.0 | 0.00 | 0.01 | 0.01 | 46 | 1020.2 |
| 20260831142503 | 79 | 245 | 3.0 | 9.0 | 0.00 | 0.01 | 0.01 | 47 | 1020.2 |
| 20260831142004 | 79 | 5 | 1.0 | 5.0 | 0.00 | 0.01 | 0.01 | 45 | 1020.4 |
| 20260831141503 | 79 | 5 | 0.0 | 8.0 | 0.00 | 0.01 | 0.01 | 46 | 1020.4 |
| 20260831141003 | 78 | 5 | 5.0 | 8.0 | 0.00 | 0.01 | 0.01 | 43 | 1020.4 |
| 20260831140505 | 78 | 5 | 2.0 | 8.0 | 0.00 | 0.01 | 0.01 | 44 | 1020.4 |
| 20260831140005 | 77 | 19 | 1.0 | 8.0 | 0.00 | 0.01 | 0.01 | 46 | 1020.4 |
| 20260831135504 | 78 | 30 | 1.0 | 5.0 | 0.00 | 0.01 | 0.01 | 51 | 1020.6 |
| 20260831135003 | 78 | 30 | 2.0 | 8.0 | 0.00 | 0.01 | 0.01 | 50 | 1020.6 |
| 20260831134504 | 77 | 355 | 4.0 | 8.0 | 0.00 | 0.01 | 0.01 | 48 | 1020.6 |
| 20260831133503 | 77 | 326 | 3.0 | 7.0 | 0.00 | 0.01 | 0.01 | 51 | 1020.5 |
| 20260831133004 | 77 | 51 | 0.0 | 2.0 | 0.00 | 0.01 | 0.01 | 51 | 1020.6 |
| 20260831132504 | 77 | 51 | 3.0 | 7.0 | 0.00 | 0.01 | 0.01 | 51 | 1020.7 |
| 20260831132004 | 76 | 69 | 2.0 | 6.0 | 0.00 | 0.01 | 0.01 | 53 | 1020.7 |
| 20260831131504 | 77 | 69 | 1.0 | 7.0 | 0.00 | 0.01 | 0.01 | 53 | 1020.8 |
| 20260831130504 | 75 | 342 | 5.0 | 10.0 | 0.00 | 0.01 | 0.01 | 53 | 1020.9 |
| 20260831130005 | 75 | 10 | 5.0 | 10.0 | 0.00 | 0.01 | 0.01 | 52 | 1020.9 |
| 20260831125504 | 75 | 49 | 1.0 | 6.0 | 0.00 | 0.01 | 0.01 | 52 | 1020.8 |
| 20260831125004 | 75 | 44 | 2.0 | 9.0 | 0.00 | 0.01 | 0.01 | 53 | 1020.9 |
| 20260831124504 | 75 | 22 | 5.0 | 9.0 | 0.00 | 0.01 | 0.01 | 55 | 1021.1 |
| 20260831123504 | 74 | 29 | 2.0 | 8.0 | 0.00 | 0.01 | 0.01 | 56 | 1021.1 |
| 20260831123005 | 74 | 31 | 3.0 | 12.0 | 0.00 | 0.01 | 0.01 | 56 | 1021.2 |
| 20260831122004 | 74 | 42 | 2.0 | 9.0 | 0.00 | 0.01 | 0.01 | 56 | 1021.3 |
| 20260831121504 | 74 | 32 | 5.0 | 10.0 | 0.00 | 0.01 | 0.01 | 57 | 1021.3 |
| 20260831121003 | 74 | 29 | 5.0 | 12.0 | 0.00 | 0.01 | 0.01 | 58 | 1021.2 |
| 20260831120504 | 73 | 38 | 2.0 | 7.0 | 0.00 | 0.01 | 0.01 | 58 | 1021.3 |
| 20260831114504 | 73 | 30 | 3.0 | 8.0 | 0.00 | 0.01 | 0.01 | 60 | 1021.5 |
| 20260831114004 | 72 | 42 | 5.0 | 12.0 | 0.00 | 0.01 | 0.01 | 62 | 1021.6 |
| 20260831113504 | 72 | 58 | 2.0 | 10.0 | 0.00 | 0.01 | 0.01 | 61 | 1021.6 |
| 20260831112504 | 71 | 48 | 3.0 | 10.0 | 0.00 | 0.01 | 0.01 | 65 | 1021.9 |
| 20260831111505 | 71 | 37 | 3.0 | 12.0 | 0.00 | 0.01 | 0.01 | 65 | 1022.1 |
| 20260831111004 | 71 | 36 | 6.0 | 8.0 | 0.00 | 0.01 | 0.01 | 64 | 1022.2 |
| 20260831110505 | 70 | 34 | 3.0 | 8.0 | 0.00 | 0.01 | 0.01 | 65 | 1022.1 |
| 20260831110004 | 70 | 25 | 9.0 | 12.0 | 0.00 | 0.01 | 0.01 | 66 | 1022.3 |
| 20260831105503 | 70 | 42 | 3.0 | 8.0 | 0.00 | 0.01 | 0.01 | 66 | 1022.3 |
| 20260831105004 | 70 | 53 | 2.0 | 8.0 | 0.00 | 0.01 | 0.01 | 67 | 1022.2 |
| 20260831104504 | 69 | 30 | 7.0 | 13.0 | 0.00 | 0.01 | 0.01 | 68 | 1022.2 |
| 20260831103504 | 69 | 32 | 7.0 | 14.0 | 0.00 | 0.01 | 0.01 | 69 | 1022.3 |
| 20260831103005 | 69 | 30 | 5.0 | 12.0 | 0.00 | 0.01 | 0.01 | 70 | 1022.3 |
| 20260831102504 | 69 | 40 | 9.0 | 18.0 | 0.00 | 0.01 | 0.01 | 70 | 1022.3 |
| 20260831102004 | 69 | 43 | 8.0 | 16.0 | 0.00 | 0.01 | 0.01 | 69 | 1022.3 |
| 20260831101504 | 68 | 56 | 2.0 | 16.0 | 0.00 | 0.01 | 0.01 | 71 | 1022.3 |
| 20260831101003 | 68 | 32 | 7.0 | 16.0 | 0.00 | 0.01 | 0.01 | 71 | 1022.3 |
| 20260831100504 | 68 | 35 | 6.0 | 15.0 | 0.00 | 0.01 | 0.01 | 71 | 1022.2 |
| 20260831095504 | 67 | 23 | 7.0 | 20.0 | 0.00 | 0.01 | 0.01 | 74 | 1022.3 |
| 20260831095004 | 67 | 38 | 9.0 | 18.0 | 0.00 | 0.01 | 0.01 | 73 | 1022.3 |
| 20260831094504 | 67 | 26 | 8.0 | 15.0 | 0.00 | 0.01 | 0.01 | 74 | 1022.2 |
| 20260831093504 | 66 | 33 | 10.0 | 15.0 | 0.00 | 0.01 | 0.01 | 76 | 1022.1 |
| 20260831093005 | 65 | 49 | 6.0 | 12.0 | 0.00 | 0.01 | 0.01 | 77 | 1022.1 |
| 20260831092504 | 65 | 39 | 6.0 | 16.0 | 0.00 | 0.01 | 0.01 | 77 | 1022.2 |
| 20260831092004 | 65 | 34 | 6.0 | 15.0 | 0.00 | 0.01 | 0.01 | 78 | 1022.2 |
| 20260831091504 | 65 | 33 | 6.0 | 12.0 | 0.00 | 0.01 | 0.01 | 79 | 1022.3 |
| 20260831091004 | 65 | 35 | 6.0 | 15.0 | 0.00 | 0.01 | 0.01 | 78 | 1022.4 |
| 20260831090503 | 64 | 43 | 6.0 | 12.0 | 0.00 | 0.01 | 0.01 | 80 | 1022.4 |
| 20260831090005 | 64 | 33 | 7.0 | 12.0 | 0.00 | 0.01 | 0.01 | 81 | 1022.6 |
| 20260831085003 | 64 | 61 | 3.0 | 6.0 | 0.00 | 0.01 | 0.01 | 82 | 1022.8 |
| 20260831084504 | 63 | 66 | 2.0 | 6.0 | 0.00 | 0.01 | 0.01 | 83 | 1022.7 |
| 20260831084004 | 63 | 61 | 2.0 | 7.0 | 0.00 | 0.01 | 0.01 | 84 | 1022.8 |
| 20260831083503 | 62 | 76 | 1.0 | 6.0 | 0.00 | 0.01 | 0.01 | 85 | 1022.7 |
| 20260831083005 | 61 | 63 | 2.0 | 5.0 | 0.00 | 0.01 | 0.01 | 87 | 1022.8 |
| 20260831082504 | 61 | 63 | 0.0 | 3.0 | 0.00 | 0.01 | 0.01 | 87 | 1022.7 |
| 20260831081504 | 60 | 63 | 0.0 | 0.0 | 0.00 | 0.01 | 0.01 | 90 | 1022.7 |
| 20260831080504 | 58 | 63 | 0.0 | 0.0 | 0.00 | 0.01 | 0.01 | 92 | 1022.6 |
| 20260831075504 | 57 | 63 | 0.0 | 0.0 | 0.00 | 0.01 | 0.01 | 97 | 1022.6 |
| 20260831075004 | 56 | 63 | 0.0 | 0.0 | 0.00 | 0.01 | 0.01 | 98 | 1022.6 |
| 20260831074504 | 56 | 63 | 0.0 | 0.0 | 0.00 | 0.01 | 0.01 | 99 | 1022.5 |
| 20260831074004 | 55 | 63 | 0.0 | 0.0 | 0.00 | 0.01 | 0.01 | 99 | 1022.5 |
| 20260831073503 | 55 | 63 | 0.0 | 0.0 | 0.00 | 0.01 | 0.01 | 99 | 1022.5 |
| 20260831072505 | 54 | 63 | 0.0 | 0.0 | 0.01 | 0.01 | 0.01 | 99 | 1022.5 |
| 20260831072004 | 54 | 63 | 0.0 | 0.0 | 0.01 | 0.01 | 0.01 | 99 | 1022.6 |
| 20260831071504 | 53 | 63 | 0.0 | 0.0 | 0.01 | 0.01 | 0.01 | 99 | 1022.5 |
| 20260831071009 | 53 | 63 | 0.0 | 0.0 | 0.01 | 0.01 | 0.01 | 99 | 1022.5 |
| 20260831070814 | 53 | 63 | 0.0 | 0.0 | 0.01 | 0.01 | 0.01 | 99 | 1022.5 |
| 20260831070315 | 53 | 63 | 0.0 | 0.0 | 0.01 | 0.01 | 0.01 | 99 | 1022.5 |
| 20260831065315 | 52 | 63 | 0.0 | 0.0 | 0.01 | 0.01 | 0.01 | 99 | 1022.6 |
| 20260831064814 | 52 | 63 | 0.0 | 0.0 | 0.01 | 0.01 | 0.01 | 99 | 1022.5 |
| 20260831064315 | 52 | 63 | 0.0 | 0.0 | 0.01 | 0.01 | 0.01 | 98 | 1022.5 |
| 20260831063815 | 51 | 63 | 0.0 | 0.0 | 0.01 | 0.01 | 0.01 | 98 | 1022.6 |
| 20260831063315 | 51 | 63 | 0.0 | 1.0 | 0.01 | 0.01 | 0.01 | 98 | 1022.5 |
| 20260831062315 | 51 | 63 | 0.0 | 1.0 | 0.00 | 0.00 | 0.00 | 98 | 1022.4 |
| 20260831061815 | 51 | 63 | 0.0 | 0.0 | 0.00 | 0.00 | 0.00 | 98 | 1022.4 |
| 20260831061315 | 51 | 63 | 0.0 | 2.0 | 0.00 | 0.00 | 0.00 | 98 | 1022.3 |
| 20260831060316 | 51 | 63 | 0.0 | 0.0 | 0.00 | 0.00 | 0.00 | 97 | 1022.3 |
| 20260831055315 | 51 | 63 | 0.0 | 0.0 | 0.00 | 0.00 | 0.00 | 97 | 1022.1 |
| 20260831054814 | 51 | 63 | 0.0 | 0.0 | 0.00 | 0.00 | 0.00 | 97 | 1022.1 |
| 20260831054315 | 51 | 63 | 0.0 | 0.0 | 0.00 | 0.00 | 0.00 | 97 | 1022.1 |
| 20260831053814 | 51 | 63 | 0.0 | 0.0 | 0.00 | 0.00 | 0.00 | 97 | 1022.0 |
| 20260831053314 | 51 | 63 | 0.0 | 0.0 | 0.00 | 0.00 | 0.00 | 97 | 1022.1 |
| 20260831052816 | 51 | 63 | 0.0 | 0.0 | 0.00 | 0.00 | 0.00 | 97 | 1022.0 |
| 20260831052315 | 51 | 63 | 0.0 | 0.0 | 0.00 | 0.00 | 0.00 | 97 | 1022.0 |
| 20260831051815 | 51 | 63 | 0.0 | 0.0 | 0.00 | 0.00 | 0.00 | 97 | 1022.0 |
| 20260831051314 | 51 | 63 | 0.0 | 0.0 | 0.00 | 0.00 | 0.00 | 97 | 1021.9 |
| 20260831050315 | 52 | 63 | 0.0 | 0.0 | 0.00 | 0.00 | 0.00 | 97 | 1021.9 |
| 20260831045816 | 52 | 63 | 0.0 | 2.0 | 0.00 | 0.00 | 0.00 | 97 | 1021.9 |
| 20260831045314 | 52 | 63 | 0.0 | 2.0 | 0.00 | 0.00 | 0.00 | 97 | 1021.9 |
| 20260831044815 | 52 | 63 | 1.0 | 2.0 | 0.00 | 0.00 | 0.00 | 97 | 1021.9 |
| 20260831044315 | 52 | 63 | 0.0 | 0.0 | 0.00 | 0.01 | 0.00 | 97 | 1021.9 |
| 20260831043815 | 52 | 63 | 0.0 | 2.0 | 0.00 | 0.04 | 0.00 | 97 | 1021.9 |
| 20260831043315 | 52 | 63 | 0.0 | 0.0 | 0.00 | 0.04 | 0.00 | 97 | 1021.9 |
| 20260831041815 | 52 | 63 | 0.0 | 2.0 | 0.00 | 0.04 | 0.00 | 97 | 1021.8 |
| 20260831041315 | 52 | 63 | 0.0 | 2.0 | 0.00 | 0.04 | 0.00 | 97 | 1021.8 |
| 20260831040815 | 52 | 63 | 1.0 | 3.0 | 0.00 | 0.04 | 0.00 | 97 | 1021.8 |
| 20260831035816 | 52 | 63 | 1.0 | 3.0 | 0.00 | 0.04 | 0.00 | 97 | 1021.7 |
| 20260831034815 | 52 | 63 | 0.0 | 1.0 | 0.00 | 0.04 | 0.00 | 97 | 1021.8 |
| 20260831034314 | 52 | 63 | 0.0 | 3.0 | 0.00 | 0.04 | 0.00 | 97 | 1021.8 |
| 20260831033815 | 52 | 63 | 0.0 | 0.0 | 0.00 | 0.04 | 0.00 | 97 | 1021.9 |
| 20260831033315 | 52 | 63 | 0.0 | 0.0 | 0.00 | 0.04 | 0.00 | 97 | 1021.9 |
| 20260831032815 | 52 | 63 | 0.0 | 0.0 | 0.00 | 0.04 | 0.00 | 97 | 1021.9 |
| 20260831032315 | 52 | 63 | 0.0 | 0.0 | 0.00 | 0.04 | 0.00 | 96 | 1021.9 |
| 20260831031815 | 52 | 63 | 0.0 | 0.0 | 0.00 | 0.04 | 0.00 | 96 | 1021.9 |
| 20260831031314 | 52 | 63 | 0.0 | 0.0 | 0.00 | 0.04 | 0.00 | 96 | 1021.8 |
| 20260831030815 | 52 | 63 | 0.0 | 0.0 | 0.00 | 0.04 | 0.00 | 96 | 1021.9 |
| 20260831030315 | 53 | 63 | 0.0 | 0.0 | 0.00 | 0.04 | 0.00 | 96 | 1022.0 |
| 20260831025815 | 53 | 63 | 0.0 | 0.0 | 0.00 | 0.04 | 0.00 | 96 | 1021.9 |
| 20260831025315 | 53 | 63 | 0.0 | 0.0 | 0.00 | 0.04 | 0.00 | 96 | 1021.8 |
| 20260831024815 | 53 | 63 | 0.0 | 0.0 | 0.00 | 0.04 | 0.00 | 96 | 1021.9 |
| 20260831024314 | 53 | 63 | 0.0 | 0.0 | 0.00 | 0.04 | 0.00 | 96 | 1021.9 |
| 20260831023815 | 53 | 63 | 0.0 | 2.0 | 0.00 | 0.04 | 0.00 | 96 | 1021.9 |
| 20260831023315 | 53 | 63 | 0.0 | 0.0 | 0.00 | 0.04 | 0.00 | 96 | 1021.9 |
| 20260831022815 | 53 | 63 | 0.0 | 0.0 | 0.00 | 0.04 | 0.00 | 96 | 1021.9 |
| 20260831022315 | 53 | 63 | 0.0 | 0.0 | 0.00 | 0.04 | 0.00 | 96 | 1021.9 |
| 20260831021815 | 53 | 63 | 0.0 | 2.0 | 0.00 | 0.04 | 0.00 | 96 | 1021.9 |
| 20260831021315 | 53 | 63 | 2.0 | 3.0 | 0.00 | 0.04 | 0.00 | 95 | 1021.9 |
| 20260831020815 | 53 | 63 | 3.0 | 5.0 | 0.00 | 0.04 | 0.00 | 95 | 1021.8 |
| 20260831020315 | 53 | 63 | 2.0 | 5.0 | 0.00 | 0.04 | 0.00 | 95 | 1021.8 |
| 20260831015815 | 54 | 63 | 0.0 | 3.0 | 0.00 | 0.04 | 0.00 | 95 | 1021.8 |
| 20260831015314 | 54 | 63 | 0.0 | 0.0 | 0.00 | 0.04 | 0.00 | 95 | 1021.8 |
| 20260831014815 | 54 | 63 | 0.0 | 0.0 | 0.00 | 0.04 | 0.00 | 95 | 1021.7 |
| 20260831014315 | 54 | 63 | 1.0 | 5.0 | 0.00 | 0.04 | 0.00 | 95 | 1021.8 |
| 20260831013815 | 54 | 63 | 3.0 | 6.0 | 0.00 | 0.04 | 0.00 | 95 | 1021.8 |
| 20260831013315 | 54 | 64 | 2.0 | 6.0 | 0.00 | 0.04 | 0.00 | 95 | 1021.8 |
| 20260831012816 | 54 | 38 | 2.0 | 3.0 | 0.00 | 0.04 | 0.00 | 95 | 1021.8 |
| 20260831012315 | 54 | 38 | 1.0 | 2.0 | 0.00 | 0.04 | 0.00 | 95 | 1021.8 |
| 20260831011315 | 55 | 38 | 1.0 | 2.0 | 0.00 | 0.04 | 0.00 | 95 | 1021.8 |
| 20260831010815 | 55 | 38 | 0.0 | 5.0 | 0.00 | 0.04 | 0.00 | 95 | 1021.7 |
| 20260831005816 | 55 | 38 | 2.0 | 6.0 | 0.00 | 0.04 | 0.00 | 95 | 1021.8 |
| 20260831005315 | 55 | 38 | 2.0 | 5.0 | 0.00 | 0.04 | 0.00 | 94 | 1021.9 |
| 20260831004815 | 55 | 38 | 0.0 | 0.0 | 0.00 | 0.04 | 0.00 | 94 | 1021.9 |
| 20260831003815 | 55 | 38 | 0.0 | 0.0 | 0.00 | 0.04 | 0.00 | 94 | 1021.9 |
| 20260831003316 | 55 | 38 | 0.0 | 0.0 | 0.00 | 0.04 | 0.00 | 94 | 1021.9 |
| 20260831002816 | 55 | 38 | 0.0 | 0.0 | 0.00 | 0.04 | 0.00 | 94 | 1021.9 |
| 20260831002315 | 55 | 38 | 0.0 | 0.0 | 0.00 | 0.04 | 0.00 | 94 | 1021.9 |
| 20260831001815 | 55 | 38 | 0.0 | 0.0 | 0.00 | 0.04 | 0.00 | 94 | 1021.9 |
| 20260831001315 | 55 | 38 | 0.0 | 0.0 | 0.00 | 0.04 | 0.00 | 94 | 1021.9 |
| 20260831000815 | 56 | 38 | 1.0 | 6.0 | 0.00 | 0.04 | 0.00 | 94 | 1021.9 |
| 20260831000317 | 56 | 38 | 0.0 | 0.0 | 0.00 | 0.04 | 0.00 | 93 | 1021.8 |
| 20260830235815 | 56 | 38 | 0.0 | 2.0 | 0.00 | 0.04 | 0.00 | 93 | 1021.8 |
| 20260830235315 | 56 | 38 | 2.0 | 5.0 | 0.00 | 0.04 | 0.00 | 93 | 1021.7 |
| 20260830234815 | 56 | 37 | 2.0 | 5.0 | 0.00 | 0.04 | 0.00 | 93 | 1021.8 |
| 20260830234315 | 56 | 37 | 1.0 | 6.0 | 0.00 | 0.04 | 0.00 | 92 | 1021.8 |
| 20260830233814 | 56 | 4 | 2.0 | 5.0 | 0.00 | 0.04 | 0.00 | 91 | 1021.8 |
| 20260830233315 | 57 | 0 | 0.0 | 3.0 | 0.00 | 0.04 | 0.00 | 91 | 1021.7 |
| 20260830232815 | 57 | 0 | 0.0 | 0.0 | 0.00 | 0.04 | 0.00 | 90 | 1021.8 |
| 20260830232315 | 57 | 0 | 0.0 | 0.0 | 0.00 | 0.04 | 0.00 | 90 | 1021.8 |